Regional Weather Roundup
Issued by NWS

Home | Current Version | Previous Version | Graphics & Text | Print | Product List | Glossary On
Versions: 1 2 3 4 5 6 7 8 9 10 11 12 13 14 15 16 17 18 19 20 21 22 23 24 25 26 27 28 29 30 31 32 33 34 35 36 37 38 39 40 41 42 43 44 45 46 47 48 49 50
000
ASUS43 KOAX 211510
RWRNE

WEATHER ROUNDUP FOR NEBRASKA
NATIONAL WEATHER SERVICE OMAHA NE
900 AM CST TUE FEB 21 2017

NOTES: SATELLITE DATA IS BEING USED TO AUGMENT CLOUD COVER ABOVE
       12000 FEET.
       "FAIR" INDICATES FEW OR NO CLOUDS BELOW 12,000 FEET WITH NO
       SIGNIFICANT WEATHER AND/OR OBSTRUCTIONS TO VISIBILITY.

  * THESE STATIONS DO NOT REPORT WEATHER SUCH AS RAIN...SNOW OR FOG.

NEZ001>004-019>022-054>056-211600-
NEBRASKA PANHANDLE

CITY           SKY/WX    TMP DP  RH WIND       PRES   REMARKS
SCOTTSBLUFF    SUNNY     50  29  44 N3        29.93R
ALLIANCE       SUNNY     43  28  55 SW7       29.92R
CHADRON        SUNNY     47  32  56 SW13      29.86R
KIMBALL        SUNNY     56  31  39 W15G23    30.00R
SIDNEY         SUNNY     51  29  42 W8        29.98R
$$

NEZ057>060-069>072-079>082-211600-
SOUTHWEST NEBRASKA

CITY           SKY/WX    TMP DP  RH WIND       PRES   REMARKS
NORTH PLATTE   SUNNY     41  26  55 CALM      29.97R
IMPERIAL       SUNNY     43  20  39 W8        29.98S
LEXINGTON      SUNNY     46  24  41 SW8       29.98S
MCCOOK         SUNNY     36  25  64 SW5       30.00S WCI  32
OGALLALA       SUNNY     39  23  52 SW6       29.96S
$$

NEZ005>010-023>029-035>040-094-211600-
NORTH CENTRAL NEBRASKA

CITY           SKY/WX    TMP DP  RH WIND       PRES   REMARKS
VALENTINE      SUNNY     48  25  40 W8        29.83S
AINSWORTH      SUNNY     49  27  41 SW13      29.85S
BROKEN BOW     SUNNY     47  25  42 SW13      29.94S
O`NEILL        SUNNY     48  28  46 SW10      29.87F
ORD            SUNNY     40  32  73 E6        29.91F
THEDFORD       SUNNY     48  23  37 SW7       29.91R
$$

NEZ041-046>049-061>064-073>077-083>087-211600-
SOUTH CENTRAL NEBRASKA

CITY           SKY/WX    TMP DP  RH WIND       PRES   REMARKS
GRAND ISLAND   SUNNY     48  33  56 SW13      29.98S
AURORA         SUNNY     44  37  76 SW8       30.00R
HASTINGS       SUNNY     46  33  60 SW8       30.01R
HEBRON         SUNNY     44  39  81 CALM      30.03R
HOLDREGE       SUNNY     45  25  45 SW9       30.00R
KEARNEY *      SUNNY     45  25  45 SW14      29.99S
YORK           MOSUNNY   45  37  76 SW10      30.00S
$$

NEZ011>018-030>034-042>045-211600-
NORTHEAST NEBRASKA

CITY           SKY/WX    TMP DP  RH WIND       PRES   REMARKS
NORFOLK        SUNNY     49  34  56 SW21G30   29.93S
ALBION         MOSUNNY   46  34  62 S7        29.94F
BLAIR          SUNNY     41  39  93 S7        29.98S
FREMONT        SUNNY     48  40  74 SW5       29.99R
TEKAMAH        SUNNY     41  38  89 SE9       29.97S
WAYNE          SUNNY     46  38  74 SW10      29.93S
$$

NEZ050>053-065>068-078-088>093-211600-
SOUTHEAST NEBRASKA

CITY           SKY/WX    TMP DP  RH WIND       PRES   REMARKS
LINCOLN        SUNNY     41  38  89 S6        30.01F
OMAHA EPPLEY   MOSUNNY   40  38  93 S6        30.00F
BEATRICE       SUNNY     40  37  87 CALM      30.02F
FALLS CITY     SUNNY     41  39  93 NW5       30.02R
NEBRASKA CITY  SUNNY     47  40  75 W8        30.01S
PLATTSMOUTH    SUNNY     46  38  75 CALM      30.01S
$$

NEZ044-045-051>053-067-211600-
OMAHA AREA

CITY           SKY/WX    TMP DP  RH WIND       PRES   REMARKS
OMAHA EPPLEY   MOSUNNY   40  38  93 S6        30.00F
BLAIR          SUNNY     41  39  93 S7        29.98S
FREMONT        SUNNY     48  40  74 SW5       29.99R
MILLARD        SUNNY     42  41  94 CALM      30.00S
OFFUTT AFB     SUNNY    125 N/A N/A SE3       30.01F
PLATTSMOUTH    SUNNY     46  38  75 CALM      30.01S
WAHOO          FAIR      41  38  89 S3        29.98S
$$




USA.gov is the U.S. government's official web portal to all federal, state and local government web resources and services.